Location: Bühlhof
(48.7849°N, 8.6361°E)
Time: 21:23:24
(UTC+00:00)

Okean 2 - Pass Details

Date: 19 January 2026
Orbit: 515 x 525 km, 82.5° (Epoch: 16 February)

Event Time Altitude Azimuth Distance (km) Brightness Sun altitude
Rises 17:23:37 0° 191° (S) 2,637 7.2 -13.1°
Reaches altitude 10° 17:25:44 10° 193° (SSW) 1,752 6.3 -13.4°
Maximum altitude 17:29:35 78° 279° (W) 537 3.3 -14.0°
Drops below altitude 10° 17:33:27 10° 7° (N) 1,761 5.7 -14.6°
Enters shadow 17:35:23 - 9° (N) 2,564 6.5 -14.9°
